PHVBG EHRD-ZZZZ

Flight info

Callsign PHVBG
Flight time N/A
Altitude 7000
Route DCT
Aircraft C152/L-SF/C

Departure

Time 2026-04-28 18:21
Airport Rotterdam The Hague Airport (EHRD)

Arrival

Time N/A
Airport ZZZZ
Time Latitude Longitude Altitude Speed Heading
2026-04-28 18:07 51.94931 4.42624 -5 ft 0 kts 324°
2026-04-28 18:10 51.94922 4.42620 -5 ft 3 kts 49°
2026-04-28 18:10 51.94920 4.42616 -5 ft 0 kts 59°
2026-04-28 18:11 51.94920 4.42617 -5 ft 0 kts 58°
2026-04-28 18:12 51.94964 4.42713 -5 ft 12 kts 12°
2026-04-28 18:12 51.95015 4.42801 -5 ft 12 kts 57°
2026-04-28 18:12 51.95033 4.42847 -5 ft 0 kts 58°
2026-04-28 18:16 51.95034 4.42849 -5 ft 1 kts 57°
2026-04-28 18:16 51.95051 4.42897 -5 ft 7 kts 58°
2026-04-28 18:17 51.95081 4.42970 -5 ft 9 kts 56°
2026-04-28 18:17 51.95111 4.43028 -5 ft 2 kts 321°
2026-04-28 18:17 51.95137 4.43110 -5 ft 12 kts 44°
2026-04-28 18:17 51.95189 4.43097 -5 ft 0 kts
2026-04-28 18:19 51.95229 4.43101 -5 ft 17 kts
2026-04-28 18:19 51.95335 4.43146 -4 ft 15 kts 44°
2026-04-28 18:19 51.95356 4.43191 -5 ft 0 kts 57°
2026-04-28 18:20 51.95424 4.43364 -6 ft 48 kts 57°
2026-04-28 18:20 51.95695 4.44033 23 ft 85 kts 56°
2026-04-28 18:20 51.96010 4.44823 223 ft 84 kts 58°
2026-04-28 18:21 51.96346 4.45662 383 ft 91 kts 54°
2026-04-28 18:21 51.96724 4.46489 570 ft 93 kts 59°
2026-04-28 18:21 51.96821 4.47480 718 ft 95 kts 111°
2026-04-28 18:21 51.96546 4.48484 745 ft 99 kts 118°
2026-04-28 18:22 51.96219 4.49465 753 ft 100 kts 121°
2026-04-28 18:22 51.95869 4.50451 757 ft 101 kts 122°
2026-04-28 18:22 51.95509 4.51434 756 ft 102 kts 122°
2026-04-28 18:22 51.95144 4.52421 760 ft 102 kts 122°
2026-04-28 18:23 51.95005 4.53504 760 ft 103 kts 72°
2026-04-28 18:23 51.95200 4.54617 764 ft 103 kts 79°
2026-04-28 18:23 51.95324 4.55726 880 ft 92 kts 79°
2026-04-28 18:23 51.95433 4.56694 984 ft 84 kts 61°
2026-04-28 18:24 51.95817 4.57395 1032 ft 85 kts 62°
2026-04-28 18:24 51.95999 4.57961 1040 ft 87 kts 58°
2026-04-28 18:24 51.96503 4.59081 1038 ft 95 kts 51°
2026-04-28 18:24 51.96929 4.59892 1036 ft 94 kts 49°
2026-04-28 18:25 51.97359 4.60692 1096 ft 93 kts 49°
2026-04-28 18:25 51.97765 4.61462 1224 ft 89 kts 49°
2026-04-28 18:25 51.98159 4.62204 1328 ft 85 kts 49°
2026-04-28 18:26 51.98851 4.63473 1143 ft 77 kts 48°
2026-04-28 18:26 51.99196 4.64114 1101 ft 70 kts 47°
2026-04-28 18:26 51.99565 4.64541 1092 ft 62 kts 25°
2026-04-28 18:26 51.99967 4.64726 1076 ft 58 kts 18°
2026-04-28 18:27 52.00346 4.64860 1076 ft 55 kts 16°
2026-04-28 18:27 52.00712 4.64979 1106 ft 51 kts 16°
2026-04-28 18:27 52.01122 4.65112 1196 ft 72 kts 16°
2026-04-28 18:27 52.01675 4.65306 1264 ft 89 kts 15°
2026-04-28 18:28 52.02147 4.65893 1281 ft 96 kts 74°
2026-04-28 18:28 52.01995 4.66987 1278 ft 103 kts 106°
2026-04-28 18:28 52.01707 4.68060 1275 ft 104 kts 110°
2026-04-28 18:28 52.01397 4.69113 1299 ft 106 kts 111°
2026-04-28 18:29 52.01069 4.70200 1307 ft 108 kts 111°
2026-04-28 18:29 52.00722 4.71289 1301 ft 109 kts 112°
2026-04-28 18:29 52.00270 4.72269 1295 ft 115 kts 147°
2026-04-28 18:29 51.99456 4.72276 1294 ft 122 kts 191°
2026-04-28 18:30 51.98661 4.71883 1276 ft 108 kts 197°
2026-04-28 18:30 51.98435 4.71753 1268 ft 96 kts 197°
2026-04-28 18:30 51.97556 4.71131 1134 ft 89 kts 207°
2026-04-28 18:30 51.96991 4.71219 1275 ft 90 kts 144°
2026-04-28 18:31 51.96424 4.71707 1352 ft 96 kts 146°
2026-04-28 18:31 51.95870 4.72185 1306 ft 70 kts 136°
2026-04-28 18:31 51.95839 4.73016 627 ft 93 kts 114°
2026-04-28 18:31 51.95361 4.73702 879 ft 88 kts 131°
2026-04-28 18:32 51.94978 4.74084 953 ft 45 kts 154°
2026-04-28 18:32 51.94420 4.74201 956 ft 51 kts 169°
2026-04-28 18:32 51.94096 4.74273 574 ft 15 kts 46°
2026-04-28 18:32 51.93761 4.74180 1 ft 2 kts 297°